| time (UTC) | temp F | wind direction | speed MPH | gust MPH | rain 1hr in | rain 24hr in | rain mn in | humidity % | barometer mb |
| 20260506014008 | 51 | 219 | 0.0 | 0.0 | 0.00 | 0.08 | 0.00 | 91 | 1007.9 |
| 20260506013509 | 51 | 219 | 0.0 | 0.0 | 0.00 | 0.08 | 0.00 | 91 | 1008.0 |
| 20260506013024 | 51 | 219 | 0.0 | 0.0 | 0.00 | 0.08 | 0.00 | 91 | 1007.9 |
| 20260506012510 | 52 | 219 | 0.0 | 0.0 | 0.00 | 0.08 | 0.00 | 91 | 1008.1 |
| 20260506012013 | 52 | 219 | 0.0 | 0.0 | 0.00 | 0.08 | 0.00 | 91 | 1008.1 |
| 20260506011535 | 52 | 219 | 0.0 | 0.0 | 0.00 | 0.08 | 0.00 | 91 | 1008.1 |
| 20260506011015 | 52 | 219 | 0.0 | 1.0 | 0.00 | 0.08 | 0.00 | 91 | 1008.1 |
| 20260506010511 | 52 | 219 | 0.0 | 1.0 | 0.00 | 0.08 | 0.00 | 91 | 1008.2 |
| 20260506010024 | 52 | 219 | 0.0 | 0.0 | 0.00 | 0.08 | 0.00 | 91 | 1008.2 |
| 20260506010012 | 54 | 227 | 1.0 | 3.0 | 0.00 | 0.09 | 0.00 | 91 | 1008.2 |
| 20260506005509 | 53 | 219 | 0.0 | 1.0 | 0.00 | 0.08 | 0.00 | 91 | 1008.2 |
| 20260506005004 | 53 | 219 | 0.0 | 1.0 | 0.00 | 0.08 | 0.00 | 90 | 1008.3 |
| 20260506004533 | 53 | 219 | 0.0 | 2.0 | 0.00 | 0.08 | 0.00 | 90 | 1008.3 |
| 20260506004007 | 53 | 219 | 0.0 | 2.0 | 0.00 | 0.08 | 0.00 | 90 | 1008.4 |
| 20260506003510 | 54 | 227 | 0.0 | 3.0 | 0.00 | 0.08 | 0.00 | 90 | 1008.5 |
| 20260506003032 | 54 | 228 | 1.0 | 5.0 | 0.00 | 0.08 | 0.00 | 90 | 1008.4 |
| 20260506003012 | 55 | 241 | 3.0 | 7.0 | 0.00 | 0.09 | 0.00 | 91 | 1008.6 |
| 20260506002507 | 54 | 215 | 1.0 | 5.0 | 0.00 | 0.08 | 0.00 | 91 | 1008.5 |
| 20260506002014 | 54 | 219 | 1.0 | 3.0 | 0.00 | 0.08 | 0.00 | 91 | 1008.5 |
| 20260506001523 | 54 | 225 | 1.0 | 3.0 | 0.00 | 0.08 | 0.00 | 91 | 1008.6 |
| 20260506001009 | 54 | 231 | 1.0 | 4.0 | 0.00 | 0.08 | 0.00 | 91 | 1008.6 |
| 20260506000513 | 55 | 204 | 0.0 | 4.0 | 0.00 | 0.08 | 0.00 | 91 | 1008.6 |
| 20260506000027 | 55 | 236 | 2.0 | 4.0 | 0.00 | 0.08 | 0.00 | 91 | 1008.6 |
| 20260505235508 | 55 | 249 | 1.0 | 4.0 | 0.00 | 0.08 | 0.00 | 91 | 1008.6 |
| 20260505235011 | 55 | 221 | 2.0 | 5.0 | 0.00 | 0.08 | 0.00 | 91 | 1008.6 |
| 20260505234526 | 55 | 240 | 1.0 | 5.0 | 0.00 | 0.08 | 0.00 | 91 | 1008.7 |
| 20260505234009 | 54 | 245 | 0.0 | 2.0 | 0.00 | 0.08 | 0.00 | 91 | 1008.8 |
| 20260505233514 | 54 | 231 | 1.0 | 2.0 | 0.00 | 0.08 | 0.00 | 91 | 1008.8 |
| 20260505233023 | 54 | 229 | 0.0 | 2.0 | 0.00 | 0.08 | 0.00 | 91 | 1008.8 |
| 20260505233011 | 55 | 252 | 0.0 | 2.0 | 0.00 | 0.09 | 0.00 | 91 | 1008.7 |
| 20260505232506 | 54 | 233 | 0.0 | 2.0 | 0.00 | 0.08 | 0.00 | 91 | 1008.9 |
| 20260505232008 | 54 | 251 | 0.0 | 2.0 | 0.00 | 0.08 | 0.00 | 91 | 1008.8 |
| 20260505231502 | 54 | 223 | 0.0 | 1.0 | 0.00 | 0.08 | 0.00 | 91 | 1008.8 |
| 20260505231006 | 54 | 222 | 0.0 | 1.0 | 0.00 | 0.08 | 0.00 | 91 | 1008.8 |
| 20260505230503 | 55 | 233 | 0.0 | 1.0 | 0.00 | 0.08 | 0.00 | 91 | 1008.7 |
| 20260505230008 | 55 | 252 | 0.0 | 3.0 | 0.00 | 0.08 | 0.00 | 91 | 1008.8 |
| 20260505225503 | 55 | 214 | 1.0 | 3.0 | 0.00 | 0.08 | 0.00 | 91 | 1008.7 |
| 20260505225003 | 55 | 253 | 0.0 | 2.0 | 0.00 | 0.08 | 0.00 | 91 | 1008.8 |
| 20260505224512 | 55 | 238 | 1.0 | 2.0 | 0.00 | 0.08 | 0.00 | 91 | 1008.8 |
| 20260505224006 | 55 | 226 | 0.0 | 2.0 | 0.00 | 0.08 | 0.00 | 91 | 1008.8 |
| 20260505223507 | 56 | 233 | 0.0 | 1.0 | 0.00 | 0.08 | 0.00 | 91 | 1008.7 |
| 20260505223015 | 56 | 243 | 0.0 | 1.0 | 0.00 | 0.08 | 0.00 | 91 | 1008.7 |
| 20260505222507 | 56 | 233 | 0.0 | 1.0 | 0.00 | 0.08 | 0.00 | 91 | 1008.7 |
| 20260505222007 | 56 | 233 | 0.0 | 1.0 | 0.00 | 0.08 | 0.00 | 91 | 1008.7 |
| 20260505221520 | 56 | 233 | 0.0 | 0.0 | 0.00 | 0.08 | 0.00 | 91 | 1008.8 |
| 20260505221006 | 56 | 233 | 0.0 | 0.0 | 0.00 | 0.08 | 0.00 | 91 | 1008.7 |
| 20260505220510 | 56 | 233 | 0.0 | 0.0 | 0.00 | 0.08 | 0.00 | 91 | 1008.7 |
| 20260505220030 | 56 | 233 | 0.0 | 1.0 | 0.00 | 0.08 | 0.00 | 91 | 1008.7 |
| 20260505220011 | 56 | 216 | 0.0 | 2.0 | 0.02 | 0.09 | 0.09 | 91 | 1008.6 |
| 20260505215504 | 56 | 233 | 0.0 | 1.0 | 0.00 | 0.08 | 0.08 | 91 | 1008.7 |
| 20260505215004 | 56 | 233 | 0.0 | 1.0 | 0.00 | 0.08 | 0.08 | 91 | 1008.7 |
| 20260505214508 | 56 | 233 | 0.0 | 1.0 | 0.00 | 0.08 | 0.08 | 91 | 1008.7 |
| 20260505214004 | 56 | 246 | 0.0 | 1.0 | 0.01 | 0.08 | 0.08 | 91 | 1008.8 |
| 20260505213505 | 56 | 215 | 0.0 | 1.0 | 0.02 | 0.08 | 0.08 | 91 | 1008.8 |
| 20260505213011 | 42 | 96 | 0.0 | 0.0 | 0.00 | 0.00 | 0.00 | 91 | 1024.1 |
| 20260505212509 | 56 | 212 | 0.0 | 2.0 | 0.04 | 0.08 | 0.08 | 91 | 1008.8 |
| 20260505212006 | 56 | 212 | 0.0 | 2.0 | 0.05 | 0.08 | 0.08 | 91 | 1008.8 |
| 20260505211521 | 56 | 227 | 0.0 | 1.0 | 0.06 | 0.08 | 0.08 | 91 | 1008.9 |
| 20260505211007 | 56 | 245 | 0.0 | 1.0 | 0.06 | 0.08 | 0.08 | 91 | 1008.8 |
| 20260505210508 | 56 | 223 | 0.0 | 2.0 | 0.06 | 0.08 | 0.08 | 91 | 1008.8 |
| 20260505210024 | 56 | 231 | 0.0 | 2.0 | 0.05 | 0.07 | 0.07 | 90 | 1008.9 |
| 20260505205507 | 56 | 230 | 0.0 | 2.0 | 0.05 | 0.07 | 0.07 | 90 | 1008.8 |
| 20260505205011 | 56 | 226 | 0.0 | 2.0 | 0.05 | 0.07 | 0.07 | 90 | 1008.8 |
| 20260505204527 | 56 | 232 | 0.0 | 2.0 | 0.06 | 0.07 | 0.07 | 90 | 1008.8 |
| 20260505204009 | 56 | 250 | 0.0 | 2.0 | 0.05 | 0.07 | 0.07 | 90 | 1008.8 |
| 20260505203504 | 56 | 219 | 0.0 | 2.0 | 0.04 | 0.06 | 0.06 | 90 | 1008.8 |
| 20260505203022 | 56 | 225 | 1.0 | 3.0 | 0.03 | 0.05 | 0.05 | 89 | 1008.8 |
| 20260505203010 | 57 | 236 | 1.0 | 3.0 | 0.02 | 0.02 | 0.02 | 89 | 1008.2 |
| 20260505202504 | 56 | 238 | 0.0 | 3.0 | 0.02 | 0.03 | 0.03 | 89 | 1008.8 |
| 20260505202004 | 56 | 262 | 0.0 | 3.0 | 0.01 | 0.03 | 0.03 | 89 | 1008.7 |
| 20260505201517 | 57 | 226 | 0.0 | 1.0 | 0.00 | 0.02 | 0.02 | 89 | 1008.7 |
| 20260505201007 | 57 | 239 | 0.0 | 2.0 | 0.00 | 0.02 | 0.02 | 89 | 1008.7 |
| 20260505200506 | 57 | 229 | 0.0 | 2.0 | 0.01 | 0.02 | 0.02 | 88 | 1008.7 |
| 20260505200019 | 57 | 243 | 0.0 | 1.0 | 0.01 | 0.02 | 0.02 | 89 | 1008.7 |
| 20260505200010 | 58 | 127 | 0.0 | 2.0 | 0.01 | 0.02 | 0.02 | 89 | 1007.9 |
| 20260505195511 | 57 | 247 | 0.0 | 1.0 | 0.01 | 0.02 | 0.02 | 88 | 1008.6 |
| 20260505195007 | 57 | 238 | 0.0 | 2.0 | 0.01 | 0.02 | 0.02 | 88 | 1008.6 |
| 20260505194523 | 57 | 245 | 1.0 | 2.0 | 0.00 | 0.01 | 0.01 | 88 | 1008.6 |
| 20260505194007 | 57 | 223 | 0.0 | 2.0 | 0.00 | 0.01 | 0.01 | 88 | 1008.6 |
| 20260505193507 | 57 | 127 | 0.0 | 1.0 | 0.00 | 0.01 | 0.01 | 89 | 1008.5 |
| 20260505193026 | 57 | 127 | 0.0 | 2.0 | 0.00 | 0.01 | 0.01 | 88 | 1008.5 |
| 20260505193014 | 58 | 204 | 0.0 | 0.0 | 0.00 | 0.01 | 0.01 | 89 | 1007.7 |
| 20260505192507 | 57 | 131 | 1.0 | 2.0 | 0.00 | 0.01 | 0.01 | 88 | 1008.5 |
| 20260505192011 | 57 | 108 | 0.0 | 2.0 | 0.00 | 0.01 | 0.01 | 88 | 1008.5 |
| 20260505191512 | 57 | 200 | 0.0 | 0.0 | 0.00 | 0.01 | 0.01 | 88 | 1008.4 |
| 20260505191004 | 57 | 205 | 0.0 | 0.0 | 0.00 | 0.01 | 0.01 | 88 | 1008.3 |
| 20260505190506 | 58 | 205 | 0.0 | 0.0 | 0.00 | 0.00 | 0.00 | 88 | 1008.1 |
| 20260505190032 | 58 | 205 | 0.0 | 0.0 | 0.00 | 0.00 | 0.00 | 88 | 1008.2 |
| 20260505190014 | 59 | 204 | 0.0 | 0.0 | 0.00 | 0.01 | 0.01 | 88 | 1007.6 |
| 20260505185510 | 58 | 205 | 0.0 | 0.0 | 0.00 | 0.00 | 0.00 | 88 | 1008.2 |
| 20260505185012 | 58 | 205 | 0.0 | 0.0 | 0.00 | 0.00 | 0.00 | 88 | 1008.2 |
| 20260505184524 | 58 | 205 | 0.0 | 0.0 | 0.00 | 0.00 | 0.00 | 88 | 1008.2 |
| 20260505184007 | 58 | 205 | 0.0 | 0.0 | 0.00 | 0.00 | 0.00 | 88 | 1008.2 |
| 20260505183510 | 58 | 205 | 0.0 | 0.0 | 0.00 | 0.00 | 0.00 | 88 | 1008.1 |
| 20260505183026 | 59 | 205 | 0.0 | 0.0 | 0.00 | 0.00 | 0.00 | 87 | 1008.0 |
| 20260505183015 | 60 | 207 | 0.0 | 0.0 | 0.00 | 0.01 | 0.01 | 86 | 1007.6 |
| 20260505182507 | 59 | 205 | 0.0 | 0.0 | 0.00 | 0.00 | 0.00 | 87 | 1008.0 |
| 20260505182012 | 59 | 205 | 0.0 | 0.0 | 0.00 | 0.00 | 0.00 | 87 | 1008.0 |
| 20260505181525 | 59 | 205 | 0.0 | 1.0 | 0.00 | 0.00 | 0.00 | 86 | 1007.9 |
| 20260505181008 | 59 | 205 | 0.0 | 1.0 | 0.00 | 0.00 | 0.00 | 86 | 1007.9 |
| 20260505180508 | 59 | 205 | 0.0 | 1.0 | 0.00 | 0.00 | 0.00 | 85 | 1007.9 |
| 20260505180035 | 60 | 207 | 0.0 | 1.0 | 0.00 | 0.00 | 0.00 | 85 | 1008.0 |
| 20260505180014 | 61 | 207 | 0.0 | 2.0 | 0.00 | 0.01 | 0.01 | 85 | 1007.7 |
| 20260505175506 | 60 | 207 | 0.0 | 1.0 | 0.00 | 0.00 | 0.00 | 85 | 1008.0 |
| 20260505175004 | 60 | 207 | 0.0 | 1.0 | 0.00 | 0.00 | 0.00 | 85 | 1007.9 |
| 20260505174514 | 60 | 207 | 0.0 | 1.0 | 0.00 | 0.00 | 0.00 | 84 | 1008.0 |
| 20260505174006 | 60 | 207 | 0.0 | 1.0 | 0.00 | 0.00 | 0.00 | 84 | 1008.0 |
| 20260505173508 | 60 | 207 | 0.0 | 1.0 | 0.00 | 0.00 | 0.00 | 84 | 1008.1 |
| 20260505173018 | 60 | 207 | 0.0 | 1.0 | 0.00 | 0.00 | 0.00 | 84 | 1008.1 |
| 20260505173014 | 60 | 207 | 1.0 | 3.0 | 0.00 | 0.01 | 0.01 | 85 | 1007.9 |
| 20260505172509 | 60 | 207 | 0.0 | 1.0 | 0.00 | 0.00 | 0.00 | 84 | 1008.2 |
| 20260505172008 | 60 | 207 | 0.0 | 1.0 | 0.00 | 0.00 | 0.00 | 84 | 1008.2 |
| 20260505171525 | 60 | 207 | 0.0 | 1.0 | 0.00 | 0.00 | 0.00 | 84 | 1008.2 |
| 20260505171008 | 60 | 207 | 0.0 | 2.0 | 0.00 | 0.00 | 0.00 | 85 | 1008.2 |
| 20260505170509 | 60 | 207 | 0.0 | 2.0 | 0.00 | 0.00 | 0.00 | 85 | 1008.2 |
| 20260505170025 | 60 | 219 | 0.0 | 1.0 | 0.00 | 0.00 | 0.00 | 84 | 1008.2 |
| 20260505170013 | 60 | 247 | 0.0 | 2.0 | 0.00 | 0.01 | 0.01 | 86 | 1007.8 |
| 20260505165509 | 60 | 233 | 0.0 | 1.0 | 0.00 | 0.00 | 0.00 | 85 | 1008.2 |
| 20260505165008 | 60 | 246 | 0.0 | 1.0 | 0.00 | 0.00 | 0.00 | 84 | 1008.1 |
| 20260505164526 | 60 | 246 | 0.0 | 1.0 | 0.00 | 0.00 | 0.00 | 84 | 1008.1 |
| 20260505164004 | 60 | 246 | 0.0 | 1.0 | 0.00 | 0.00 | 0.00 | 85 | 1008.2 |
| 20260505163506 | 60 | 246 | 0.0 | 1.0 | 0.00 | 0.00 | 0.00 | 85 | 1008.3 |
| 20260505163015 | 60 | 246 | 0.0 | 1.0 | 0.00 | 0.00 | 0.00 | 85 | 1008.3 |
| 20260505162505 | 60 | 248 | 0.0 | 1.0 | 0.00 | 0.00 | 0.00 | 85 | 1008.4 |
| 20260505162002 | 60 | 248 | 0.0 | 1.0 | 0.00 | 0.00 | 0.00 | 86 | 1008.3 |
| 20260505161504 | 60 | 248 | 0.0 | 1.0 | 0.00 | 0.00 | 0.00 | 86 | 1008.5 |
| 20260505161004 | 60 | 238 | 0.0 | 1.0 | 0.00 | 0.00 | 0.00 | 86 | 1008.5 |
| 20260505160504 | 60 | 231 | 0.0 | 1.0 | 0.00 | 0.00 | 0.00 | 86 | 1008.5 |
| 20260505153018 | 60 | 200 | 0.0 | 0.0 | 0.00 | 0.00 | 0.00 | 86 | 1008.5 |
| 20260505153013 | 60 | 220 | 0.0 | 2.0 | 0.00 | 0.00 | 0.00 | 86 | 1008.3 |
| 20260505152508 | 60 | 198 | 0.0 | 0.0 | 0.00 | 0.00 | 0.00 | 86 | 1008.5 |
| 20260505152008 | 60 | 198 | 0.0 | 0.0 | 0.00 | 0.00 | 0.00 | 86 | 1008.6 |
| 20260505151519 | 60 | 198 | 0.0 | 1.0 | 0.00 | 0.00 | 0.00 | 86 | 1008.6 |
| 20260505151008 | 60 | 198 | 0.0 | 1.0 | 0.00 | 0.00 | 0.00 | 86 | 1008.6 |
| 20260505150508 | 60 | 231 | 0.0 | 1.0 | 0.00 | 0.00 | 0.00 | 85 | 1008.6 |
| 20260505140506 | 61 | 220 | 4.0 | 9.0 | 0.00 | 0.00 | 0.00 | 81 | 1009.1 |
| 20260505125007 | 65 | 251 | 2.0 | 6.0 | 0.00 | 0.00 | 0.00 | 66 | 1008.9 |
| 20260505124520 | 65 | 243 | 3.0 | 6.0 | 0.00 | 0.00 | 0.00 | 64 | 1008.9 |
| 20260505124007 | 66 | 238 | 3.0 | 6.0 | 0.00 | 0.00 | 0.00 | 64 | 1008.9 |
| 20260505123509 | 66 | 326 | 1.0 | 5.0 | 0.00 | 0.00 | 0.00 | 65 | 1008.9 |
| 20260505123023 | 66 | 222 | 2.0 | 6.0 | 0.00 | 0.00 | 0.00 | 63 | 1008.9 |
| 20260505123011 | 68 | 209 | 4.0 | 10.0 | 0.00 | 0.00 | 0.00 | 63 | 1008.6 |
| 20260505122503 | 66 | 226 | 3.0 | 7.0 | 0.00 | 0.00 | 0.00 | 64 | 1008.9 |
| 20260505122006 | 66 | 243 | 4.0 | 7.0 | 0.00 | 0.00 | 0.00 | 63 | 1008.9 |
| 20260505121508 | 67 | 224 | 1.0 | 7.0 | 0.00 | 0.00 | 0.00 | 65 | 1008.8 |
| 20260505121004 | 67 | 264 | 4.0 | 7.0 | 0.00 | 0.00 | 0.00 | 63 | 1008.8 |
| 20260505120503 | 67 | 278 | 1.0 | 6.0 | 0.00 | 0.00 | 0.00 | 64 | 1008.8 |
| 20260505120029 | 67 | 217 | 3.0 | 6.0 | 0.00 | 0.00 | 0.00 | 63 | 1008.7 |
| 20260505120011 | 68 | 238 | 4.0 | 9.0 | 0.00 | 0.00 | 0.00 | 63 | 1008.7 |
| 20260505115504 | 68 | 204 | 1.0 | 6.0 | 0.00 | 0.00 | 0.00 | 62 | 1008.8 |
| 20260505115007 | 67 | 230 | 1.0 | 6.0 | 0.00 | 0.00 | 0.00 | 62 | 1008.8 |
| 20260505114520 | 67 | 213 | 2.0 | 5.0 | 0.00 | 0.00 | 0.00 | 62 | 1008.8 |
| 20260505114008 | 67 | 218 | 3.0 | 5.0 | 0.00 | 0.00 | 0.00 | 63 | 1008.9 |
| 20260505113508 | 67 | 246 | 2.0 | 4.0 | 0.00 | 0.00 | 0.00 | 62 | 1008.8 |
| 20260505113020 | 67 | 226 | 1.0 | 4.0 | 0.00 | 0.00 | 0.00 | 63 | 1008.8 |
| 20260505113011 | 69 | 224 | 1.0 | 7.0 | 0.00 | 0.00 | 0.00 | 60 | 1009.1 |
| 20260505112511 | 67 | 245 | 0.0 | 4.0 | 0.00 | 0.00 | 0.00 | 63 | 1008.9 |
| 20260505112008 | 67 | 217 | 0.0 | 2.0 | 0.00 | 0.00 | 0.00 | 61 | 1008.9 |
| 20260505111531 | 67 | 10 | 0.0 | 6.0 | 0.00 | 0.00 | 0.00 | 60 | 1009.0 |
| 20260505111008 | 68 | 66 | 0.0 | 6.0 | 0.00 | 0.00 | 0.00 | 60 | 1009.0 |
| 20260505110504 | 68 | 219 | 1.0 | 4.0 | 0.00 | 0.00 | 0.00 | 58 | 1009.0 |
| 20260505102007 | 68 | 329 | 1.0 | 7.0 | 0.00 | 0.00 | 0.00 | 61 | 1009.5 |
| 20260505101529 | 68 | 218 | 1.0 | 6.0 | 0.00 | 0.00 | 0.00 | 60 | 1009.6 |
| 20260505101011 | 68 | 308 | 2.0 | 6.0 | 0.00 | 0.00 | 0.00 | 59 | 1009.7 |
| 20260505100513 | 68 | 217 | 2.0 | 6.0 | 0.00 | 0.00 | 0.00 | 60 | 1009.7 |
| 20260505100030 | 68 | 252 | 3.0 | 6.0 | 0.00 | 0.00 | 0.00 | 61 | 1009.8 |
| 20260505100010 | 67 | 246 | 2.0 | 7.0 | 0.00 | 0.00 | 0.00 | 65 | 1009.9 |
| 20260505095509 | 68 | 267 | 1.0 | 6.0 | 0.00 | 0.00 | 0.00 | 61 | 1009.7 |
| 20260505095003 | 68 | 240 | 2.0 | 5.0 | 0.00 | 0.00 | 0.00 | 61 | 1009.7 |
| 20260505094510 | 67 | 220 | 3.0 | 5.0 | 0.00 | 0.00 | 0.00 | 62 | 1009.8 |
| 20260505094007 | 67 | 195 | 1.0 | 4.0 | 0.00 | 0.00 | 0.00 | 65 | 1009.8 |
| 20260505093507 | 67 | 239 | 1.0 | 4.0 | 0.00 | 0.00 | 0.00 | 64 | 1009.8 |
| 20260505093017 | 66 | 220 | 1.0 | 6.0 | 0.00 | 0.00 | 0.00 | 67 | 1009.9 |
| 20260505093010 | 66 | 230 | 3.0 | 7.0 | 0.00 | 0.00 | 0.00 | 70 | 1010.2 |
| 20260505092508 | 66 | 213 | 3.0 | 6.0 | 0.00 | 0.00 | 0.00 | 67 | 1009.9 |
| 20260505092009 | 65 | 232 | 4.0 | 5.0 | 0.00 | 0.00 | 0.00 | 69 | 1010.0 |
| 20260505091522 | 65 | 244 | 2.0 | 5.0 | 0.00 | 0.00 | 0.00 | 67 | 1010.0 |
| 20260505091009 | 65 | 252 | 2.0 | 6.0 | 0.00 | 0.00 | 0.00 | 68 | 1010.1 |
| 20260505090508 | 65 | 238 | 2.0 | 6.0 | 0.00 | 0.00 | 0.00 | 69 | 1010.1 |
| 20260505090025 | 65 | 246 | 2.0 | 6.0 | 0.00 | 0.00 | 0.00 | 69 | 1010.1 |
| 20260505090010 | 63 | 233 | 5.0 | 9.0 | 0.00 | 0.00 | 0.00 | 76 | 1010.4 |
| 20260505085510 | 65 | 346 | 2.0 | 6.0 | 0.00 | 0.00 | 0.00 | 71 | 1010.0 |
| 20260505085009 | 64 | 241 | 3.0 | 5.0 | 0.00 | 0.00 | 0.00 | 71 | 1010.1 |
| 20260505084543 | 64 | 313 | 1.0 | 5.0 | 0.00 | 0.00 | 0.00 | 73 | 1010.2 |
| 20260505084012 | 63 | 245 | 2.0 | 5.0 | 0.00 | 0.00 | 0.00 | 75 | 1010.2 |
| 20260505083508 | 63 | 200 | 3.0 | 5.0 | 0.00 | 0.00 | 0.00 | 75 | 1010.3 |
| 20260505083018 | 63 | 217 | 3.0 | 6.0 | 0.00 | 0.00 | 0.00 | 75 | 1010.4 |
| 20260505083010 | 62 | 243 | 3.0 | 7.0 | 0.00 | 0.00 | 0.00 | 77 | 1010.4 |
| 20260505082507 | 62 | 233 | 2.0 | 6.0 | 0.00 | 0.00 | 0.00 | 76 | 1010.3 |
| 20260505082009 | 62 | 245 | 1.0 | 4.0 | 0.00 | 0.00 | 0.00 | 77 | 1010.3 |
| 20260505081518 | 62 | 229 | 2.0 | 5.0 | 0.00 | 0.00 | 0.00 | 76 | 1010.3 |
| 20260505081012 | 62 | 209 | 3.0 | 5.0 | 0.00 | 0.00 | 0.00 | 76 | 1010.3 |
| 20260505080509 | 62 | 221 | 1.0 | 5.0 | 0.00 | 0.00 | 0.00 | 76 | 1010.3 |
| 20260505080033 | 62 | 212 | 2.0 | 4.0 | 0.00 | 0.00 | 0.00 | 76 | 1010.4 |
| 20260505080009 | 59 | 232 | 0.0 | 3.0 | 0.00 | 0.00 | 0.00 | 82 | 1010.4 |
| 20260505075509 | 61 | 205 | 2.0 | 4.0 | 0.00 | 0.00 | 0.00 | 77 | 1010.4 |
| 20260505075007 | 60 | 242 | 1.0 | 3.0 | 0.00 | 0.00 | 0.00 | 78 | 1010.4 |
| 20260505074526 | 59 | 213 | 2.0 | 3.0 | 0.00 | 0.00 | 0.00 | 78 | 1010.4 |
| 20260505074009 | 59 | 247 | 1.0 | 2.0 | 0.00 | 0.00 | 0.00 | 81 | 1010.4 |
| 20260505073512 | 58 | 232 | 0.0 | 2.0 | 0.00 | 0.00 | 0.00 | 82 | 1010.4 |
| 20260505073039 | 58 | 245 | 0.0 | 2.0 | 0.00 | 0.00 | 0.00 | 83 | 1010.3 |
| 20260505073014 | 57 | 235 | 0.0 | 0.0 | 0.00 | 0.00 | 0.00 | 86 | 1010.5 |
| 20260505072509 | 58 | 221 | 0.0 | 1.0 | 0.00 | 0.00 | 0.00 | 83 | 1010.3 |
| 20260505072005 | 58 | 242 | 1.0 | 1.0 | 0.00 | 0.00 | 0.00 | 83 | 1010.3 |
| 20260505071514 | 57 | 235 | 0.0 | 1.0 | 0.00 | 0.00 | 0.00 | 83 | 1010.4 |
| 20260505071008 | 57 | 235 | 0.0 | 0.0 | 0.00 | 0.00 | 0.00 | 84 | 1010.4 |
| 20260505070508 | 56 | 235 | 0.0 | 1.0 | 0.00 | 0.00 | 0.00 | 85 | 1010.4 |
| 20260505070025 | 56 | 235 | 0.0 | 1.0 | 0.00 | 0.00 | 0.00 | 85 | 1010.5 |
| 20260505070014 | 56 | 235 | 0.0 | 2.0 | 0.00 | 0.00 | 0.00 | 87 | 1010.8 |
| 20260505065505 | 56 | 235 | 0.0 | 1.0 | 0.00 | 0.00 | 0.00 | 86 | 1010.7 |
| 20260505065003 | 56 | 235 | 0.0 | 1.0 | 0.00 | 0.00 | 0.00 | 86 | 1010.7 |
| 20260505064504 | 55 | 235 | 0.0 | 1.0 | 0.00 | 0.00 | 0.00 | 86 | 1010.8 |
| 20260505064004 | 55 | 235 | 0.0 | 1.0 | 0.00 | 0.00 | 0.00 | 87 | 1010.7 |
| 20260505063504 | 55 | 235 | 0.0 | 1.0 | 0.00 | 0.00 | 0.00 | 87 | 1010.8 |
| 20260505063014 | 55 | 354 | 0.0 | 2.0 | 0.00 | 0.00 | 0.00 | 87 | 1011.0 |
| 20260505063008 | 55 | 235 | 0.0 | 1.0 | 0.00 | 0.00 | 0.00 | 86 | 1010.8 |
| 20260505062506 | 55 | 235 | 0.0 | 1.0 | 0.00 | 0.00 | 0.00 | 86 | 1010.9 |
| 20260505062007 | 55 | 231 | 0.0 | 1.0 | 0.00 | 0.00 | 0.00 | 86 | 1010.9 |
| 20260505061525 | 55 | 353 | 0.0 | 1.0 | 0.00 | 0.00 | 0.00 | 86 | 1010.9 |
| 20260505061007 | 55 | 353 | 0.0 | 1.0 | 0.00 | 0.00 | 0.00 | 87 | 1010.9 |
| 20260505060510 | 55 | 353 | 0.0 | 1.0 | 0.00 | 0.00 | 0.00 | 87 | 1010.9 |
| 20260505060033 | 54 | 353 | 0.0 | 1.0 | 0.00 | 0.00 | 0.00 | 87 | 1010.9 |
| 20260505060013 | 54 | 354 | 0.0 | 0.0 | 0.00 | 0.00 | 0.00 | 88 | 1010.8 |
| 20260505055508 | 54 | 353 | 0.0 | 0.0 | 0.00 | 0.00 | 0.00 | 87 | 1011.0 |
| 20260505055011 | 54 | 353 | 0.0 | 0.0 | 0.00 | 0.00 | 0.00 | 87 | 1011.0 |
| 20260505054522 | 54 | 353 | 0.0 | 0.0 | 0.00 | 0.00 | 0.00 | 87 | 1011.0 |
| 20260505054017 | 54 | 353 | 0.0 | 0.0 | 0.00 | 0.00 | 0.00 | 88 | 1011.0 |
| 20260505053504 | 53 | 353 | 0.0 | 0.0 | 0.00 | 0.00 | 0.00 | 88 | 1010.9 |
| 20260505053013 | 53 | 354 | 0.0 | 0.0 | 0.00 | 0.00 | 0.00 | 89 | 1010.6 |
| 20260505053006 | 53 | 353 | 0.0 | 1.0 | 0.00 | 0.00 | 0.00 | 88 | 1010.9 |
| 20260505052503 | 53 | 353 | 0.0 | 1.0 | 0.00 | 0.00 | 0.00 | 88 | 1010.9 |
| 20260505052003 | 53 | 353 | 0.0 | 0.0 | 0.00 | 0.00 | 0.00 | 88 | 1010.8 |
| 20260505051507 | 53 | 353 | 0.0 | 0.0 | 0.00 | 0.00 | 0.00 | 88 | 1010.8 |
| 20260505051005 | 53 | 353 | 0.0 | 0.0 | 0.00 | 0.00 | 0.00 | 88 | 1010.8 |
| 20260505050506 | 53 | 353 | 0.0 | 0.0 | 0.00 | 0.00 | 0.00 | 88 | 1010.8 |
| 20260505041508 | 53 | 360 | 0.0 | 1.0 | 0.00 | 0.00 | 0.00 | 88 | 1010.8 |
| 20260505041004 | 53 | 360 | 0.0 | 1.0 | 0.00 | 0.00 | 0.00 | 88 | 1010.8 |
| 20260505040508 | 53 | 360 | 0.0 | 1.0 | 0.00 | 0.00 | 0.00 | 87 | 1010.8 |
| 20260505040019 | 53 | 360 | 0.0 | 1.0 | 0.00 | 0.00 | 0.00 | 87 | 1010.8 |
| 20260505040013 | 54 | 0 | 0.0 | 0.0 | 0.00 | 0.00 | 0.00 | 87 | 1010.9 |
| 20260505035505 | 53 | 360 | 0.0 | 0.0 | 0.00 | 0.00 | 0.00 | 87 | 1010.8 |
| 20260505035005 | 54 | 359 | 0.0 | 0.0 | 0.00 | 0.00 | 0.00 | 87 | 1010.9 |
| 20260505034518 | 54 | 360 | 0.0 | 0.0 | 0.00 | 0.00 | 0.00 | 87 | 1010.9 |
| 20260505034008 | 54 | 360 | 0.0 | 0.0 | 0.00 | 0.00 | 0.00 | 87 | 1011.0 |
| 20260505033506 | 54 | 360 | 0.0 | 0.0 | 0.00 | 0.00 | 0.00 | 87 | 1011.0 |
| 20260505033022 | 54 | 360 | 0.0 | 0.0 | 0.00 | 0.00 | 0.00 | 87 | 1011.1 |
| 20260505033012 | 55 | 0 | 0.0 | 0.0 | 0.00 | 0.00 | 0.00 | 87 | 1011.2 |
| 20260505032511 | 54 | 360 | 0.0 | 0.0 | 0.00 | 0.00 | 0.00 | 87 | 1011.1 |
| 20260505032014 | 54 | 360 | 0.0 | 0.0 | 0.00 | 0.00 | 0.00 | 87 | 1011.2 |
| 20260505031526 | 54 | 360 | 0.0 | 0.0 | 0.00 | 0.00 | 0.00 | 87 | 1011.2 |
| 20260505031010 | 54 | 360 | 0.0 | 0.0 | 0.00 | 0.00 | 0.00 | 87 | 1011.2 |
| 20260505030507 | 54 | 360 | 0.0 | 0.0 | 0.00 | 0.00 | 0.00 | 86 | 1011.3 |
| 20260505030025 | 54 | 360 | 0.0 | 0.0 | 0.00 | 0.00 | 0.00 | 86 | 1011.4 |
| 20260505030012 | 56 | 11 | 0.0 | 0.0 | 0.00 | 0.00 | 0.00 | 86 | 1011.6 |
| 20260505025509 | 54 | 360 | 0.0 | 0.0 | 0.00 | 0.00 | 0.00 | 86 | 1011.4 |
| 20260505025003 | 55 | 360 | 0.0 | 0.0 | 0.00 | 0.00 | 0.00 | 86 | 1011.4 |
| 20260505024515 | 55 | 360 | 0.0 | 0.0 | 0.00 | 0.00 | 0.00 | 86 | 1011.5 |
| 20260505024005 | 55 | 17 | 0.0 | 1.0 | 0.00 | 0.00 | 0.00 | 86 | 1011.6 |
| 20260505023505 | 55 | 18 | 0.0 | 1.0 | 0.00 | 0.00 | 0.00 | 85 | 1011.6 |
| 20260505023017 | 55 | 11 | 0.0 | 0.0 | 0.00 | 0.00 | 0.00 | 85 | 1011.7 |
| 20260505023012 | 56 | 130 | 0.0 | 0.0 | 0.00 | 0.00 | 0.00 | 85 | 1011.9 |
| 20260505022507 | 55 | 11 | 0.0 | 0.0 | 0.00 | 0.00 | 0.00 | 85 | 1011.8 |
| 20260505022009 | 55 | 11 | 0.0 | 1.0 | 0.00 | 0.00 | 0.00 | 85 | 1011.8 |
| 20260505021520 | 55 | 11 | 0.0 | 1.0 | 0.00 | 0.00 | 0.00 | 85 | 1011.8 |
| 20260505021010 | 56 | 130 | 0.0 | 1.0 | 0.00 | 0.00 | 0.00 | 85 | 1011.9 |
| 20260505020506 | 55 | 130 | 0.0 | 1.0 | 0.00 | 0.00 | 0.00 | 85 | 1011.9 |
| 20260505020034 | 56 | 130 | 0.0 | 1.0 | 0.00 | 0.00 | 0.00 | 85 | 1011.9 |
| 20260505015512 | 55 | 130 | 0.0 | 1.0 | 0.00 | 0.00 | 0.00 | 85 | 1011.9 |
| 20260505015008 | 56 | 130 | 0.0 | 0.0 | 0.00 | 0.00 | 0.00 | 85 | 1011.9 |
| 20260505014535 | 56 | 130 | 0.0 | 0.0 | 0.00 | 0.00 | 0.00 | 85 | 1011.9 |